Regional Weather Roundup
Issued by NWS

Home | Current Version | Previous Version | Text Only | Print | Product List | Glossary On
Versions: 1 2 3 4 5 6 7 8 9 10 11 12 13 14 15 16 17 18 19 20 21 22 23 24 25 26 27
000
ASUS42 KTBW 240810
RWRFL
FLORIDA REGIONAL WEATHER ROUNDUP
NATIONAL WEATHER SERVICE TAMPA BAY RUSKIN FL
400 AM EDT FRI OCT 24 2014

NOTE: "FAIR" INDICATES FEW OR NO CLOUDS BELOW 12,000 FEET WITH NO
SIGNIFICANT WEATHER AND/OR OBSTRUCTIONS TO VISIBILITY.


FLZ001>010-012>015-112-114-115-240900-
PANHANDLE FLORIDA

CITY           SKY/WX    TMP DP  RH WIND       PRES   REMARKS
PENSACOLA      CLOUDY    58  46  64 N6        30.04S
PENSACOLA NAS  MOCLDY    53  46  77 N5        30.03F
MILTON NAS     MOCLDY    55  45  68 N3        30.04S
CRESTVIEW      CLOUDY    51  48  89 CALM      30.06S
DUKE FIELD     FAIR      52  48  87 CALM      30.04S
VALPARAISO     MOCLDY    57  46  66 N3        30.03F
MARY ESTHER    CLOUDY    56  44  65 N8        30.02F
PANAMA CITY    FAIR      54  50  86 CALM      30.02S
TYNDALL AFB    CLOUDY    54  51  88 CALM      30.03S
APALACHICOLA   PTCLDY    56  48  74 NE5       30.01S

STATION/POSITION SKY/WX   TEMP    WIND        PRES    WAVE   SWELL
                          AIR SEA DIR/SP/G            HT/PER HT/PER
                          (F)     (DEG/KT/KT) (MB)    (FT/S) (FT/S)
30.1N   87.6W              70 78   30/ 12/ 14 1016.6F   2/ 3   2/ 6
29.2N   88.2W              72 78  360/  8/ 10 1017.2    3/ 7   3/ 7
28.8N   86.0W              72 80   50/ 10/ 12 1015.7F   3/ 6   3/ 6
PANAMA CITY BEAC           57 76   30/  5/  7 1016.6F
CAPE SAN BLAS    NOT AVBL
TOWER C                    69      50/ 12/ 14 1015.8F
28.5N   84.5W              73 80   50/ 10/ 12 1015.0F   3/ 4   2/ 4

$$
FLZ011-016>038-118-127-128-134-139-239-240900-
NORTH FLORIDA

CITY           SKY/WX    TMP DP  RH WIND       PRES   REMARKS
MARIANNA       CLOUDY    52  52 100 CALM      30.03S
TALLAHASSEE    MOCLDY    49  44  83 W3        30.02S
PERRY          PTCLDY    45  45 100 CALM      30.02S
CROSS CITY       N/A     48  45  89 CALM      30.00F
LAKE CITY      FAIR      45  45 100 CALM      30.01F
GAINESVILLE    CLEAR     47  46  97 CALM      30.00F
MAYPORT NAS    CLEAR     59  52  77 W5        30.00F
JACKSONVILLE   CLEAR     47  47 100 CALM      30.00F
JAX NAS        CLEAR     61  51  70 NW3       30.01F
JAX CRAIG      CLEAR     53  50  89 CALM      30.00F
JAX CECIL      CLEAR     45  45 100 CALM      30.01S
FERNANDINA BEA FAIR      57  54  88 CALM      29.99F
ST AUGUSTINE   CLEAR     54  50  86 NW7       30.00F

STATION/POSITION SKY/WX   TEMP    WIND        PRES    WAVE   SWELL
                          AIR SEA DIR/SP/G            HT/PER HT/PER
                          (F)     (DEG/KT/KT) (MB)    (FT/S) (FT/S)
SHELL POINT                58      20/  4/  5   N/A
KEATON BEACH               54      50/  4/  6 1016.3F
CEDAR KEY                  63      70/ 10/ 11 1016.2R
FERNANDINA                 59 73  290/  3/  4 1015.4S
30.7N   81.3W                 75                N/A     2/ 8
MAYPORT                    60 75  300/  5/  7   N/A
31.4N   80.9W              69 75   20/  8/ 12 1016.0F   2/ 9   2/ 9
ST AUGUSTINE               69      40/ 10/ 11 1015.9F

$$
FLZ040-043>046-052-053-057-058-063-144-240900-
INTERIOR CENTRAL FLORIDA

CITY           SKY/WX    TMP DP  RH WIND       PRES   REMARKS
OCALA          CLEAR     54  48  82 N5        29.99S
THE VILLAGES     N/A     61  55  82 N3        29.89S
LEESBURG       CLEAR     59  53  80 NE7       29.98F
ORLANDO EXEC   CLEAR     64  56  75 N7        29.96F
ORLANDO INTL   PTCLDY    63  57  81 N8        29.96F
WINTER HAVEN   CLEAR     62  56  80 N9        29.96F
LAKELAND       CLEAR     61  54  77 NE7       29.96S
BARTOW         FAIR      63  55  77 NE7       29.96S
OKEECHOBEE       N/A    N/A N/A N/A MISG        N/A

$$
FLZ041-047-054-059-064-141-147-240900-
EAST CENTRAL FLORIDA

CITY           SKY/WX    TMP DP  RH WIND       PRES   REMARKS
DAYTONA BEACH  PTCLDY    58  55  90 CALM      29.97F
DELAND         SUNNY     57  54  88 NW3       29.99S
JFK SPACE CTR  MOCLDY    65  56  71 NE2       29.94F
CAPE CANAVERAL MOCLDY    70  57  62 VRB6      29.93F
PATRICK AFB    PTCLDY    73  57  58 NE10      29.93F
MELBOURNE      CLEAR     73  57  57 NE12      29.93F
VERO BEACH     MOCLDY    71  59  65 NE12      29.91F
FT PIERCE      PTCLDY    73  59  61 NE7       29.90F
STUART         CLOUDY    73  63  68 NE13      29.91S

STATION/POSITION SKY/WX   TEMP    WIND        PRES    WAVE   SWELL
                          AIR SEA DIR/SP/G            HT/PER HT/PER
                          (F)     (DEG/KT/KT) (MB)    (FT/S) (FT/S)
28.5N   80.2W              74 80   80/ 10/ 16 1014.2F
28.9N   78.5W              74 81   30/ 10/ 12 1014.2F   3/ 8   3/ 8
TRIDENT PIER               66 79   10/  3/  3 1013.4F
28.4N   80.5W                 78                N/A     2/10
27.6N   80.2W                 80                N/A     3/ 5

$$
FLZ050-056-061-142-242-148-248-149-249-151-251-155-255-
160-260-240900-
WEST CENTRAL FLORIDA

CITY           SKY/WX    TMP DP  RH WIND       PRES   REMARKS
CRYSTAL RIVER  FAIR      55  52  88 NE3       29.98F
INVERNESS      FAIR      55  52  88 N5        29.99S
BROOKSVILLE    CLEAR     57  54  89 N3        29.98F
ZEPHYRHILLS      N/A     54  54 100 NE5       29.98R
CLEARWATER     CLEAR     67  58  72 NE10      29.95F
TAMPA INTL     CLEAR     63  55  75 NE6       29.96F
TAMPA EXEC     CLEAR     59  55  88 NE3       29.97S
PLANT CITY     CLEAR     63  59  88 NE5       29.98S
MACDILL AFB    CLEAR     62  59  91 E10       29.95F
ST PETERSBURG  CLEAR     70  61  73 E20       29.94S
SARASOTA       CLEAR     63  57  81 NE8       29.92F
VENICE           N/A     64  55  72 MISG      29.92F

STATION/POSITION SKY/WX   TEMP    WIND        PRES    WAVE   SWELL
                          AIR SEA DIR/SP/G            HT/PER HT/PER
                          (F)     (DEG/KT/KT) (MB)    (FT/S) (FT/S)
CEDAR KEY                  63      70/ 10/ 11 1016.2R
28.5N   84.5W              73 80   50/ 10/ 12 1015.0F   3/ 4   2/ 4
27.3N   84.3W                 82                N/A     4/ 5
CLEARWATER BEACH NOT AVBL
MIDDLE TAMPA BAY           68      90/ 14/ 16 1014.1F
VENICE                     65 79   40/  7/ 10 1012.7F

$$
FLZ066-069-070-075>078-162-262-165-265-240900-
SOUTHWEST FLORIDA AND KEYS

CITY           SKY/WX    TMP DP  RH WIND       PRES   REMARKS
PUNTA GORDA    CLEAR     63  57  81 NE7       29.92F
FT MYERS       CLEAR     65  58  78 NE10      29.89F
SOUTHWEST INTL CLEAR     67  57  70 NE10      29.89F
NAPLES         PTCLDY    71  60  68 NE12      29.86F
MARATHON       CLOUDY    75  75 100 NE16      29.80F
KEY WEST NAS   CLOUDY    76  72  87 NE12      29.81R
KEY WEST INTL  CLOUDY    77  74  90 NE14G22   29.81S

STATION/POSITION SKY/WX   TEMP    WIND        PRES    WAVE   SWELL
                          AIR SEA DIR/SP/G            HT/PER HT/PER
                          (F)     (DEG/KT/KT) (MB)    (FT/S) (FT/S)
VENICE                     65 79   40/  7/ 10 1012.7F
NAPLES                     71 82   30/  6/ 11 1011.8F
26.0N   85.6W              76 81   10/ 12/ 16 1013.1F   5/ 7   5/ 7
DRY TORTUGAS               79      60/ 21/ 24 1010.0F
NW FL BAY                  78      70/ 15/ 17 1010.3F
SAND KEY                   77      40/ 18/ 20 1009.2F
SOMBRERO KEY               76      30/ 21/ 23 1008.8F
LONG KEY                   76 78   40/ 14/ 16 1009.9F
MOLASSES REEF              79 83   70/ 14/ 16 1009.1F

$$
FLZ067-068-071>074-168-172>174-240900-
SOUTHEAST FLORIDA

CITY           SKY/WX    TMP DP  RH WIND       PRES   REMARKS
W PALM BEACH   CLOUDY    77  65  66 NE14      29.86F
FT LAUDER-EXEC CLOUDY    78  68  71 NE9       29.84F
FT LAUDERDALE  CLOUDY    79  69  71 NE16G25   29.83F
POMPANO BEACH  MOCLDY    79  68  69 NE17      29.85F
PEMBROKE PINES CLOUDY    78  68  71 NE15      29.85F
OPA LOCKA      CLOUDY    78  69  73 NE13      29.84F
MIAMI          CLOUDY    78  69  73 NE10      29.83F
WEST KENDALL   LGT RAIN  78  71  79 NE8       29.83F
HOMESTEAD      LGT RAIN  75  72  88 N17G24    29.82F

STATION/POSITION SKY/WX   TEMP    WIND        PRES    WAVE   SWELL
                          AIR SEA DIR/SP/G            HT/PER HT/PER
                          (F)     (DEG/KT/KT) (MB)    (FT/S) (FT/S)
PORT EVERGLADES            80      50/ 18/ 22 1010.2
VIRGINIA KEY               77 80   60/ 12/ 18 1010.2F
LAKE WORTH                 78 80   40/ 19/ 23 1011.1S
FOWEY ROCKS                76 79   50/ 18/ 20 1010.1F
SETTLEMENT POINT           77      60/ 20/ 22 1012.0F

$$




USA.gov is the U.S. government's official web portal to all federal, state and local government web resources and services.